History for Miami, FL

Wednesday, December 19, 2012 — View Current Conditions

Jump to Data:

Date:
Airport Code:
Recently Viewed Airport Codes: KMIA
Daily Summary
  Actual Average Record
Temperature
Mean Temperature 74°F 70°F  
Max Temperature 82°F 78°F 85°F (1989)
Min Temperature 66°F 62°F 39°F (1981)
Degree Days
Heating Degree Days 0 1  
Month to date heating degree days 0 15  
Since 1 July heating degree days 1 18  
Cooling Degree Days 9 6  
Month to date cooling degree days 193 134  
Year to date cooling degree days 4633 4506  
Growing Degree Days 24 (Base 50)    
Moisture
Dew Point 63°F    
Average Humidity 73    
Maximum Humidity 97    
Minimum Humidity 48    
Precipitation
Precipitation 0.00 in 0.07 in 1.75 in (1964)
Month to date precipitation 0.51 1.31  
Year to date precipitation 86.94 61.17  
Snow
Snow 0.00 in in in ()
Month to date snowfall 0.0  
Since 1 July snowfall 0.0  
Snow Depth 0.00 in    
Sea Level Pressure
Sea Level Pressure 30.06 in    
Wind
Wind Speed 5 mph (East)    
Max Wind Speed 12 mph    
Max Gust Speed 22 mph    
Visibility 10 miles    
Events      
T = Trace of Precipitation, MM = Missing Value Source: NWS Daily Summary

Show full METARS

(help) - Comma Delimited File

Hourly Observations

Time(EST) Temperature Dew Point Humidity Sea Level Pressure Visibility Wind Direction Wind Speed Gust Speed Precipitation Events Conditions
12:53 AM 71.1°F 68.0°F 90% 30.03 in 10.0 miles Calm Calm - N/A   Clear
1:53 AM 69.8°F 68.0°F 94% 30.04 in 10.0 miles Calm Calm - N/A   Clear
2:53 AM 70.0°F 68.0°F 93% 30.03 in 10.0 miles Calm Calm - N/A   Clear
3:53 AM 69.1°F 66.0°F 90% 30.02 in 10.0 miles Calm Calm - N/A   Clear
4:53 AM 68.0°F 64.0°F 87% 30.03 in 10.0 miles Calm Calm - N/A   Clear
5:53 AM 66.9°F 61.0°F 81% 30.04 in 9.0 miles North 3.5 mph - N/A   Clear
6:53 AM 66.9°F 57.9°F 73% 30.05 in 10.0 miles Calm Calm - N/A   Clear
7:53 AM 68.0°F 57.0°F 68% 30.07 in 10.0 miles North 3.5 mph - N/A   Clear
8:53 AM 72.0°F 57.0°F 59% 30.09 in 10.0 miles Variable 3.5 mph - N/A   Clear
9:53 AM 75.9°F 55.9°F 50% 30.11 in 10.0 miles NNE 4.6 mph - N/A   Clear
10:53 AM 79.0°F 57.0°F 47% 30.10 in 10.0 miles NE 5.8 mph - N/A   Clear
11:53 AM 81.0°F 63.0°F 54% 30.09 in 10.0 miles ESE 6.9 mph - N/A   Partly Cloudy
12:53 PM 80.1°F 64.0°F 58% 30.06 in 10.0 miles East 9.2 mph - N/A   Partly Cloudy
1:53 PM 81.0°F 64.9°F 58% 30.04 in 10.0 miles ENE 6.9 mph - N/A   Scattered Clouds
2:53 PM 81.0°F 64.9°F 58% 30.04 in 10.0 miles East 6.9 mph - N/A   Scattered Clouds
3:53 PM 79.0°F 64.0°F 60% 30.04 in 10.0 miles East 9.2 mph - N/A   Scattered Clouds
4:53 PM 78.1°F 64.0°F 62% 30.04 in 10.0 miles ESE 10.4 mph - N/A   Partly Cloudy
5:53 PM 75.9°F 66.0°F 71% 30.06 in 10.0 miles East 10.4 mph - N/A   Partly Cloudy
6:53 PM 75.9°F 66.0°F 71% 30.06 in 10.0 miles East 10.4 mph - N/A   Partly Cloudy
7:53 PM 75.0°F 64.9°F 71% 30.08 in 10.0 miles East 6.9 mph - N/A   Partly Cloudy
8:53 PM 73.9°F 64.9°F 73% 30.09 in 10.0 miles ESE 6.9 mph - N/A   Partly Cloudy
9:53 PM 73.9°F 64.9°F 73% 30.09 in 10.0 miles East 6.9 mph - N/A   Mostly Cloudy
10:53 PM 73.0°F 64.9°F 76% 30.09 in 10.0 miles ESE 5.8 mph - N/A   Mostly Cloudy
11:53 PM 73.0°F 64.0°F 73% 30.08 in 10.0 miles ESE 4.6 mph - N/A   Scattered Clouds